,,,PA_Meas_PMT16A,,PR_Meas_QMR101_102,,RH_Meas_QMH101,,SR_Meas_QMS101,,TA_Meas_QMH101,,GenWind,,GenWind,
date,time,status,PA,status,PR,status,RH,status,SR,status,TA,status,DirAvg,status,SpdAvg,
2010-08-31, 00:00:04,VALID,1000.75,VALID,0,VALID,90.4339,VALID,0,VALID,23.3695,VALID,342,VALID,0.323047,
2010-08-31, 00:01:04,VALID,1000.7,VALID,0,VALID,90.4949,VALID,0,VALID,23.3482,VALID,353,VALID,0.517187,
2010-08-31, 00:02:04,VALID,1000.68,VALID,0,VALID,90.6399,VALID,0,VALID,23.35,VALID,353,VALID,0.355859,
2010-08-31, 00:03:04,VALID,1000.71,VALID,0,VALID,90.5712,VALID,0,VALID,23.3518,VALID,353,VALID,0.169531,
2010-08-31, 00:04:04,VALID,1000.69,VALID,0,VALID,90.5636,VALID,0,VALID,23.3305,VALID,353,VALID,0.310937,
2010-08-31, 00:05:04,VALID,1000.67,VALID,0,VALID,90.5483,VALID,0,VALID,23.35,VALID,353,VALID,0.293359,
2010-08-31, 00:06:04,VALID,1000.64,VALID,0,VALID,90.2966,VALID,0,VALID,23.4103,VALID,151,VALID,1.05781,
2010-08-31, 00:07:04,VALID,1000.62,VALID,0,VALID,89.3886,VALID,0,VALID,23.5061,VALID,165,VALID,0.710156,
2010-08-31, 00:08:04,VALID,1000.65,VALID,0,VALID,89.0529,VALID,0,VALID,23.5841,VALID,166,VALID,0.889063,
2010-08-31, 00:09:04,VALID,1000.57,VALID,0,VALID,88.8164,VALID,0,VALID,23.5646,VALID,159,VALID,0.505078,
2010-08-31, 00:10:04,VALID,1000.53,VALID,0,VALID,88.7783,VALID,0,VALID,23.6036,VALID,158,VALID,0.423438,
2010-08-31, 00:11:04,VALID,1000.51,VALID,0,VALID,88.6562,VALID,0,VALID,23.6036,VALID,159,VALID,0.318359,
2010-08-31, 00:12:04,VALID,1000.49,VALID,0,VALID,88.6028,VALID,0,VALID,23.6427,VALID,158,VALID,0.487109,
2010-08-31, 00:13:04,VALID,1000.46,VALID,0,VALID,88.8164,VALID,0,VALID,23.6622,VALID,158,VALID,0.457812,
2010-08-31, 00:14:04,VALID,1000.46,VALID,0,VALID,88.5112,VALID,0,VALID,23.7012,VALID,137,VALID,0.980469,
2010-08-31, 00:15:04,VALID,1000.41,VALID,0,VALID,88.0229,VALID,0,VALID,23.7402,VALID,123,VALID,0.65,
2010-08-31, 00:16:04,VALID,1000.41,VALID,0,VALID,87.7025,VALID,0,VALID,23.7793,VALID,123,VALID,0.505469,
2010-08-31, 00:17:04,VALID,1000.4,VALID,0,VALID,87.6033,VALID,0,VALID,23.7988,VALID,123,VALID,0.447656,
2010-08-31, 00:18:04,VALID,1000.38,VALID,0,VALID,87.5194,VALID,0,VALID,23.8183,VALID,131,VALID,0.756641,
2010-08-31, 00:19:04,VALID,1000.35,VALID,0,VALID,87.5194,VALID,0,VALID,23.7988,VALID,121,VALID,0.711328,
2010-08-31, 00:20:04,VALID,1000.31,VALID,0,VALID,87.5575,VALID,0,VALID,23.8183,VALID,86,VALID,0.726172,
2010-08-31, 00:21:04,VALID,1000.31,VALID,0,VALID,87.3286,VALID,0,VALID,23.8183,VALID,59,VALID,0.885547,
2010-08-31, 00:22:04,VALID,1000.34,VALID,0,VALID,87.2447,VALID,0,VALID,23.7793,VALID,112,VALID,0.871875,
2010-08-31, 00:23:04,VALID,1000.33,VALID,0,VALID,87.7864,VALID,0,VALID,23.7207,VALID,120,VALID,0.677734,
2010-08-31, 00:24:04,VALID,1000.32,VALID,0,VALID,88.0534,VALID,0,VALID,23.7012,VALID,120,VALID,0.534375,
2010-08-31, 00:25:04,VALID,1000.28,VALID,0,VALID,88.2747,VALID,0,VALID,23.6622,VALID,120,VALID,0.494922,
2010-08-31, 00:26:04,VALID,1000.31,VALID,0,VALID,88.3968,VALID,0,VALID,23.6409,VALID,120,VALID,0.43125,
2010-08-31, 00:27:04,VALID,1000.32,VALID,0,VALID,88.5723,VALID,0,VALID,23.6019,VALID,120,VALID,0.162109,
2010-08-31, 00:28:04,VALID,1000.29,VALID,0,VALID,88.3739,VALID,0,VALID,23.5841,VALID,120,VALID,0.457422,
2010-08-31, 00:29:04,VALID,1000.3,VALID,0,VALID,88.2213,VALID,0,VALID,23.4866,VALID,120,VALID,0.212891,
2010-08-31, 00:30:04,VALID,1000.33,VALID,0,VALID,89.114,VALID,0,VALID,23.4475,VALID,142,VALID,0.533594,
2010-08-31, 00:31:04,VALID,1000.3,VALID,0,VALID,89.5946,VALID,0,VALID,23.4067,VALID,168,VALID,0.286328,
2010-08-31, 00:32:04,VALID,1000.28,VALID,0,VALID,89.6633,VALID,0,VALID,23.4475,VALID,168,VALID,0.132813,
2010-08-31, 00:33:04,VALID,1000.27,VALID,0,VALID,89.6786,VALID,0,VALID,23.4475,VALID,168,VALID,0.229687,
2010-08-31, 00:34:04,VALID,1000.27,VALID,0,VALID,89.6709,VALID,0,VALID,23.4263,VALID,168,VALID,0.251172,
2010-08-31, 00:35:04,VALID,1000.3,VALID,0,VALID,89.5946,VALID,0,VALID,23.4671,VALID,168,VALID,0.1625,
2010-08-31, 00:36:04,VALID,1000.29,VALID,0,VALID,89.4573,VALID,0,VALID,23.4475,VALID,168,VALID,0,
2010-08-31, 00:37:04,VALID,1000.31,VALID,0,VALID,89.2971,VALID,0,VALID,23.428,VALID,168,VALID,0.0382813,
2010-08-31, 00:38:04,VALID,1000.28,VALID,0,VALID,89.4039,VALID,0,VALID,23.4085,VALID,168,VALID,0,
2010-08-31, 00:39:04,VALID,1000.26,VALID,0,VALID,89.526,VALID,0,VALID,23.3695,VALID,168,VALID,0,
2010-08-31, 00:40:04,VALID,1000.27,VALID,0,VALID,89.7091,VALID,0,VALID,23.35,VALID,168,VALID,0.5,
2010-08-31, 00:41:04,VALID,1000.31,VALID,0,VALID,89.8235,VALID,0,VALID,23.3305,VALID,168,VALID,0.271484,
2010-08-31, 00:42:04,VALID,1000.26,VALID,0,VALID,89.7091,VALID,0,VALID,23.2915,VALID,168,VALID,0.498828,
2010-08-31, 00:43:04,VALID,1000.27,VALID,0,VALID,89.526,VALID,0,VALID,23.2719,VALID,65,VALID,0.673828,
2010-08-31, 00:44:04,VALID,1000.25,VALID,0,VALID,89.5183,VALID,0,VALID,23.1939,VALID,2,VALID,0.565234,
2010-08-31, 00:45:04,VALID,1000.27,VALID,0,VALID,89.4268,VALID,0,VALID,23.1354,VALID,2,VALID,0.137109,
2010-08-31, 00:46:04,VALID,1000.23,VALID,0,VALID,89.6023,VALID,0,VALID,23.0769,VALID,2,VALID,0.612109,
2010-08-31, 00:47:04,VALID,1000.2,VALID,0,VALID,90.1058,VALID,0,VALID,23.0378,VALID,2,VALID,0.958594,
2010-08-31, 00:48:04,VALID,1000.21,VALID,0,VALID,90.1821,VALID,0,VALID,23.0183,VALID,2,VALID,0.737891,
2010-08-31, 00:49:04,VALID,1000.25,VALID,0,VALID,90.4034,VALID,0,VALID,22.9793,VALID,2,VALID,0.401172,
2010-08-31, 00:50:04,VALID,1000.26,VALID,0,VALID,90.5254,VALID,0,VALID,22.9793,VALID,2,VALID,0.0238281,
2010-08-31, 00:51:04,VALID,1000.28,VALID,0,VALID,90.5941,VALID,0,VALID,22.9403,VALID,2,VALID,0,
2010-08-31, 00:52:04,VALID,1000.26,VALID,0,VALID,90.6246,VALID,0,VALID,22.9013,VALID,2,VALID,0,
2010-08-31, 00:53:04,VALID,1000.21,VALID,0,VALID,90.8611,VALID,0,VALID,22.9208,VALID,2,VALID,0.34375,
2010-08-31, 00:54:04,VALID,1000.23,VALID,0,VALID,91.0061,VALID,0,VALID,22.9013,VALID,2,VALID,0.259766,
2010-08-31, 00:55:04,VALID,1000.2,VALID,0,VALID,91.2121,VALID,0,VALID,22.88,VALID,2,VALID,0.372656,
2010-08-31, 00:56:04,VALID,1000.17,VALID,0,VALID,91.3876,VALID,0,VALID,22.8818,VALID,2,VALID,0.382813,
2010-08-31, 00:57:04,VALID,1000.17,VALID,0,VALID,91.6088,VALID,0,VALID,22.9013,VALID,2,VALID,0.301172,
2010-08-31, 00:58:04,VALID,1000.18,VALID,0,VALID,91.7767,VALID,0,VALID,22.9013,VALID,2,VALID,0.301562,
2010-08-31, 00:59:04,VALID,1000.13,VALID,0,VALID,91.792,VALID,0,VALID,22.8818,VALID,2,VALID,0.0933594,
2010-08-31, 01:00:04,VALID,1000.11,VALID,0,VALID,91.7691,VALID,0,VALID,22.8605,VALID,2,VALID,0.403125,
2010-08-31, 01:01:04,VALID,1000.08,VALID,0,VALID,91.8377,VALID,0,VALID,22.8623,VALID,2,VALID,0.433203,
2010-08-31, 01:02:04,VALID,1000.05,VALID,0,VALID,92.0132,VALID,0,VALID,22.8605,VALID,2,VALID,0.474219,
2010-08-31, 01:03:04,VALID,1000.06,VALID,0,VALID,92.0132,VALID,0,VALID,22.8623,VALID,2,VALID,0.165234,
2010-08-31, 01:04:04,VALID,1000.03,VALID,0,VALID,91.8911,VALID,0,VALID,22.8232,VALID,2,VALID,0.295312,
2010-08-31, 01:05:04,VALID,1000.01,VALID,0,VALID,91.8072,VALID,0,VALID,22.7842,VALID,4,VALID,0.702734,
2010-08-31, 01:06:04,VALID,999.994,VALID,0,VALID,91.9293,VALID,0,VALID,22.7842,VALID,3,VALID,1.05117,
2010-08-31, 01:07:04,VALID,1000.01,VALID,0,VALID,92.0971,VALID,0,VALID,22.7647,VALID,3,VALID,0.773828,
2010-08-31, 01:08:04,VALID,999.997,VALID,0,VALID,92.1429,VALID,0,VALID,22.7257,VALID,3,VALID,0.560938,
2010-08-31, 01:09:04,VALID,1000.04,VALID,0,VALID,92.2268,VALID,0,VALID,22.7257,VALID,300,VALID,0.530859,
2010-08-31, 01:10:04,VALID,1000.04,VALID,0,VALID,92.3718,VALID,0,VALID,22.7452,VALID,300,VALID,0,
2010-08-31, 01:11:04,VALID,1000.01,VALID,0,VALID,92.5091,VALID,0,VALID,22.7647,VALID,300,VALID,0,
2010-08-31, 01:12:04,VALID,1000.02,VALID,0,VALID,92.5778,VALID,0,VALID,22.7647,VALID,300,VALID,0,
2010-08-31, 01:13:04,VALID,999.99,VALID,0,VALID,92.6388,VALID,0,VALID,22.8037,VALID,300,VALID,0,
2010-08-31, 01:14:04,VALID,999.951,VALID,0,VALID,92.6236,VALID,0,VALID,22.8232,VALID,300,VALID,0,
2010-08-31, 01:15:04,VALID,999.927,VALID,0,VALID,92.6083,VALID,0,VALID,22.8427,VALID,300,VALID,0,
2010-08-31, 01:16:04,VALID,999.94,VALID,0,VALID,92.5473,VALID,0,VALID,22.8623,VALID,300,VALID,0,
2010-08-31, 01:17:04,VALID,999.879,VALID,0,VALID,92.4252,VALID,0,VALID,22.8818,VALID,300,VALID,0,
2010-08-31, 01:18:04,VALID,999.885,VALID,0,VALID,92.2421,VALID,0,VALID,22.8818,VALID,300,VALID,0,
2010-08-31, 01:19:04,VALID,999.866,VALID,0,VALID,91.9903,VALID,0,VALID,22.8818,VALID,300,VALID,0.706641,
2010-08-31, 01:20:04,VALID,999.841,VALID,0,VALID,91.6851,VALID,0,VALID,22.9013,VALID,300,VALID,0.688672,
2010-08-31, 01:21:04,VALID,999.855,VALID,0,VALID,91.6928,VALID,0,VALID,22.9598,VALID,300,VALID,0.607031,
2010-08-31, 01:22:04,VALID,999.835,VALID,0,VALID,91.6088,VALID,0,VALID,23.0183,VALID,300,VALID,0.397266,
2010-08-31, 01:23:04,VALID,999.851,VALID,0,VALID,91.3571,VALID,0,VALID,23.0378,VALID,300,VALID,0.298047,
2010-08-31, 01:24:04,VALID,999.848,VALID,0,VALID,90.9756,VALID,0,VALID,23.0573,VALID,300,VALID,0.263281,
2010-08-31, 01:25:04,VALID,999.872,VALID,0,VALID,90.472,VALID,0,VALID,23.0183,VALID,300,VALID,0.173828,
2010-08-31, 01:26:04,VALID,999.871,VALID,0,VALID,90.0677,VALID,0,VALID,22.9793,VALID,300,VALID,0.311719,
2010-08-31, 01:27:04,VALID,999.824,VALID,0,VALID,89.999,VALID,0,VALID,22.9811,VALID,300,VALID,0.533984,
2010-08-31, 01:28:04,VALID,999.853,VALID,0,VALID,90.5636,VALID,0,VALID,22.9403,VALID,300,VALID,0.317187,
2010-08-31, 01:29:04,VALID,999.852,VALID,0,VALID,90.3805,VALID,0,VALID,22.9208,VALID,300,VALID,0.00546875,
2010-08-31, 01:30:04,VALID,999.869,VALID,0,VALID,90.411,VALID,0,VALID,22.9013,VALID,300,VALID,0,
2010-08-31, 01:31:04,VALID,999.875,VALID,0,VALID,90.2584,VALID,0,VALID,22.8623,VALID,300,VALID,0.185547,
2010-08-31, 01:32:04,VALID,999.872,VALID,0,VALID,90.4034,VALID,0,VALID,22.8427,VALID,300,VALID,0.382422,
2010-08-31, 01:33:04,VALID,999.915,VALID,0,VALID,90.4186,VALID,0,VALID,22.8427,VALID,300,VALID,0.413672,
2010-08-31, 01:34:04,VALID,999.898,VALID,0,VALID,90.35,VALID,0,VALID,22.8623,VALID,74,VALID,0.434375,
2010-08-31, 01:35:04,VALID,999.911,VALID,0,VALID,90.144,VALID,0,VALID,22.8818,VALID,79,VALID,0.313672,
2010-08-31, 01:36:04,VALID,999.892,VALID,0,VALID,89.854,VALID,0,VALID,22.9013,VALID,79,VALID,0.457812,
2010-08-31, 01:37:04,VALID,999.876,VALID,0,VALID,89.6404,VALID,0,VALID,22.8818,VALID,47,VALID,0.615625,
2010-08-31, 01:38:04,VALID,999.889,VALID,0,VALID,89.6328,VALID,0,VALID,22.8427,VALID,47,VALID,0.0617188,
2010-08-31, 01:39:04,VALID,999.853,VALID,0,VALID,89.6557,VALID,0,VALID,22.7842,VALID,47,VALID,0.100391,
2010-08-31, 01:40:04,VALID,999.864,VALID,0,VALID,89.7701,VALID,0,VALID,22.7452,VALID,47,VALID,0.0867188,
2010-08-31, 01:41:04,VALID,999.848,VALID,0,VALID,90.1592,VALID,0,VALID,22.7274,VALID,47,VALID,0.314844,
2010-08-31, 01:42:04,VALID,999.83,VALID,0,VALID,90.2889,VALID,0,VALID,22.6867,VALID,47,VALID,0.160547,
2010-08-31, 01:43:04,VALID,999.833,VALID,0,VALID,90.4491,VALID,0,VALID,22.6477,VALID,47,VALID,0.0046875,
2010-08-31, 01:44:04,VALID,999.825,VALID,0,VALID,90.6475,VALID,0,VALID,22.6087,VALID,47,VALID,0.0453125,
2010-08-31, 01:45:04,VALID,999.825,VALID,0,VALID,90.968,VALID,0,VALID,22.6087,VALID,42,VALID,0.367188,
2010-08-31, 01:46:04,VALID,999.826,VALID,0,VALID,91.1511,VALID,0,VALID,22.6087,VALID,42,VALID,0.4625,
2010-08-31, 01:47:04,VALID,999.814,VALID,0,VALID,91.2884,VALID,0,VALID,22.6087,VALID,42,VALID,0.525781,
2010-08-31, 01:48:04,VALID,999.771,VALID,0,VALID,91.4181,VALID,0,VALID,22.5892,VALID,42,VALID,0.507422,
2010-08-31, 01:49:04,VALID,999.762,VALID,0,VALID,91.6394,VALID,0,VALID,22.6282,VALID,36,VALID,0.810547,
2010-08-31, 01:50:04,VALID,999.737,VALID,0,VALID,91.8911,VALID,0,VALID,22.6477,VALID,36,VALID,0.671484,
2010-08-31, 01:51:04,VALID,999.729,VALID,0,VALID,92.0132,VALID,0,VALID,22.6282,VALID,36,VALID,0.567578,
2010-08-31, 01:52:04,VALID,999.727,VALID,0,VALID,91.8454,VALID,0,VALID,22.6087,VALID,36,VALID,0.501562,
2010-08-31, 01:53:04,VALID,999.726,VALID,0,VALID,91.7462,VALID,0,VALID,22.5696,VALID,36,VALID,0.0121094,
2010-08-31, 01:54:04,VALID,999.7,VALID,0,VALID,91.7614,VALID,0,VALID,22.5696,VALID,283,VALID,0.651953,
2010-08-31, 01:55:04,VALID,999.72,VALID,0,VALID,91.9369,VALID,0,VALID,22.5892,VALID,279,VALID,0.342187,
2010-08-31, 01:56:04,VALID,999.719,VALID,0,VALID,92.0514,VALID,0,VALID,22.6299,VALID,279,VALID,0.194141,
2010-08-31, 01:57:04,VALID,999.701,VALID,0,VALID,92.1048,VALID,0,VALID,22.6477,VALID,279,VALID,0.167187,
2010-08-31, 01:58:04,VALID,999.674,VALID,0,VALID,92.0666,VALID,0,VALID,22.6672,VALID,279,VALID,0.0359375,
2010-08-31, 01:59:04,VALID,999.674,VALID,0,VALID,91.9751,VALID,0,VALID,22.6672,VALID,279,VALID,0.364453,
2010-08-31, 02:00:04,VALID,999.64,VALID,0,VALID,91.8148,VALID,0,VALID,22.6867,VALID,279,VALID,0,
2010-08-31, 02:01:04,VALID,999.602,VALID,0,VALID,91.6165,VALID,0,VALID,22.7062,VALID,279,VALID,0.243359,
2010-08-31, 02:02:04,VALID,999.612,VALID,0,VALID,91.2884,VALID,0,VALID,22.7257,VALID,41,VALID,0.380859,
2010-08-31, 02:03:04,VALID,999.591,VALID,0,VALID,90.8993,VALID,0,VALID,22.7452,VALID,41,VALID,0.235938,
2010-08-31, 02:04:04,VALID,999.582,VALID,0,VALID,90.2966,VALID,0,VALID,22.7045,VALID,41,VALID,0.471094,
2010-08-31, 02:05:04,VALID,999.57,VALID,0,VALID,90.2355,VALID,0,VALID,22.7257,VALID,85,VALID,0.558594,
2010-08-31, 02:06:04,VALID,999.56,VALID,0,VALID,89.648,VALID,0,VALID,22.7452,VALID,105,VALID,0.662891,
2010-08-31, 02:07:04,VALID,999.543,VALID,0,VALID,89.2055,VALID,0,VALID,22.763,VALID,105,VALID,0.742578,
2010-08-31, 02:08:04,VALID,999.556,VALID,0,VALID,88.9385,VALID,0,VALID,22.8623,VALID,105,VALID,0.580469,
2010-08-31, 02:09:04,VALID,999.574,VALID,0,VALID,88.4349,VALID,0,VALID,22.9013,VALID,105,VALID,0.452344,
2010-08-31, 02:10:04,VALID,999.543,VALID,0,VALID,88.3434,VALID,0,VALID,22.8818,VALID,105,VALID,0.449219,
2010-08-31, 02:11:04,VALID,999.554,VALID,0,VALID,88.5646,VALID,0,VALID,22.8818,VALID,105,VALID,0.435937,
2010-08-31, 02:12:04,VALID,999.531,VALID,0,VALID,88.4044,VALID,0,VALID,22.8623,VALID,105,VALID,0.325,
2010-08-31, 02:13:04,VALID,999.518,VALID,0,VALID,88.3357,VALID,0,VALID,22.8427,VALID,105,VALID,0.065625,
2010-08-31, 02:14:04,VALID,999.504,VALID,0,VALID,88.6409,VALID,0,VALID,22.8232,VALID,105,VALID,0.0617188,
2010-08-31, 02:15:04,VALID,999.54,VALID,0,VALID,88.9843,VALID,0,VALID,22.8427,VALID,105,VALID,0.382422,
2010-08-31, 02:16:04,VALID,999.515,VALID,0,VALID,89.114,VALID,0,VALID,22.8427,VALID,105,VALID,0.317187,
2010-08-31, 02:17:04,VALID,999.519,VALID,0,VALID,89.0682,VALID,0,VALID,22.8427,VALID,72,VALID,0.43125,
2010-08-31, 02:18:04,VALID,999.542,VALID,0,VALID,89.0377,VALID,0.112286,VALID,22.7825,VALID,72,VALID,0.518359,
2010-08-31, 02:19:04,VALID,999.582,VALID,0,VALID,88.908,VALID,0,VALID,22.7452,VALID,29,VALID,0.630078,
2010-08-31, 02:20:04,VALID,999.59,VALID,0,VALID,89.2894,VALID,0,VALID,22.6867,VALID,29,VALID,0.623828,
2010-08-31, 02:21:04,VALID,999.571,VALID,0,VALID,89.7091,VALID,0,VALID,22.6282,VALID,18,VALID,0.797266,
2010-08-31, 02:22:04,VALID,999.577,VALID,0,VALID,90.2279,VALID,0,VALID,22.5892,VALID,10,VALID,0.90625,
2010-08-31, 02:23:04,VALID,999.584,VALID,0,VALID,90.4491,VALID,0,VALID,22.5501,VALID,8,VALID,0.827344,
2010-08-31, 02:24:04,VALID,999.578,VALID,0,VALID,90.7696,VALID,0,VALID,22.5519,VALID,8,VALID,0.825,
2010-08-31, 02:25:04,VALID,999.563,VALID,0,VALID,90.3652,VALID,0,VALID,22.5111,VALID,359,VALID,0.767578,
2010-08-31, 02:26:04,VALID,999.586,VALID,0,VALID,90.6933,VALID,0,VALID,22.4721,VALID,353,VALID,0.516406,
2010-08-31, 02:27:04,VALID,999.576,VALID,0,VALID,90.9603,VALID,0,VALID,22.4526,VALID,353,VALID,0.00195313,
2010-08-31, 02:28:04,VALID,999.569,VALID,0,VALID,91.1206,VALID,0,VALID,22.4331,VALID,353,VALID,0,
2010-08-31, 02:29:04,VALID,999.549,VALID,0,VALID,91.2426,VALID,0,VALID,22.4136,VALID,353,VALID,0,
2010-08-31, 02:30:04,VALID,999.558,VALID,0,VALID,91.3189,VALID,0,VALID,22.4136,VALID,353,VALID,0,
2010-08-31, 02:31:04,VALID,999.572,VALID,0,VALID,91.5097,VALID,0,VALID,22.3941,VALID,353,VALID,0,
2010-08-31, 02:32:04,VALID,999.583,VALID,0,VALID,91.7233,VALID,0,VALID,22.3941,VALID,353,VALID,0,
2010-08-31, 02:33:04,VALID,999.571,VALID,0,VALID,91.8988,VALID,0,VALID,22.4136,VALID,353,VALID,0,
2010-08-31, 02:34:04,VALID,999.59,VALID,0,VALID,91.8606,VALID,0,VALID,22.4153,VALID,353,VALID,0,
2010-08-31, 02:35:04,VALID,999.562,VALID,0,VALID,91.8225,VALID,0,VALID,22.3339,VALID,353,VALID,0,
2010-08-31, 02:36:04,VALID,999.578,VALID,0,VALID,91.8683,VALID,0,VALID,22.3763,VALID,353,VALID,0,
2010-08-31, 02:37:04,VALID,999.56,VALID,0,VALID,91.9445,VALID,0,VALID,22.3356,VALID,353,VALID,0,
2010-08-31, 02:38:04,VALID,999.57,VALID,0,VALID,91.998,VALID,0,VALID,22.3568,VALID,353,VALID,0,
2010-08-31, 02:39:04,VALID,999.556,VALID,0,VALID,91.9674,VALID,0,VALID,22.3161,VALID,353,VALID,0,
2010-08-31, 02:40:04,VALID,999.559,VALID,0,VALID,91.8988,VALID,0,VALID,22.2771,VALID,353,VALID,0,
2010-08-31, 02:41:04,VALID,999.587,VALID,0,VALID,91.9751,VALID,0,VALID,22.2966,VALID,353,VALID,0,
2010-08-31, 02:42:04,VALID,999.567,VALID,0,VALID,92.1811,VALID,0,VALID,22.2966,VALID,353,VALID,0,
2010-08-31, 02:43:04,VALID,999.567,VALID,0,VALID,92.2726,VALID,0,VALID,22.2966,VALID,353,VALID,0,
2010-08-31, 02:44:04,VALID,999.527,VALID,0,VALID,92.326,VALID,0,VALID,22.2966,VALID,353,VALID,0,
2010-08-31, 02:45:04,VALID,999.578,VALID,0,VALID,92.4405,VALID,0,VALID,22.3178,VALID,353,VALID,0,
2010-08-31, 02:46:04,VALID,999.568,VALID,0,VALID,92.5244,VALID,0,VALID,22.3356,VALID,61,VALID,0.605469,
2010-08-31, 02:47:04,VALID,999.551,VALID,0,VALID,92.4328,VALID,0,VALID,22.3356,VALID,74,VALID,0.738672,
2010-08-31, 02:48:04,VALID,999.554,VALID,0,VALID,92.4252,VALID,0,VALID,22.3941,VALID,86,VALID,1.1543,
2010-08-31, 02:49:04,VALID,999.557,VALID,0,VALID,92.3184,VALID,0,VALID,22.4136,VALID,89,VALID,1.31406,
2010-08-31, 02:50:04,VALID,999.561,VALID,0,VALID,92.1582,VALID,0,VALID,22.4136,VALID,98,VALID,1.67773,
2010-08-31, 02:51:04,VALID,999.544,VALID,0,VALID,92.0132,VALID,0,VALID,22.3941,VALID,88,VALID,1.78203,
2010-08-31, 02:52:04,VALID,999.534,VALID,0,VALID,91.9369,VALID,0,VALID,22.3551,VALID,75,VALID,1.24688,
2010-08-31, 02:53:04,VALID,999.515,VALID,0,VALID,91.8911,VALID,0,VALID,22.3356,VALID,72,VALID,1.01602,
2010-08-31, 02:54:04,VALID,999.493,VALID,0,VALID,91.8606,VALID,0,VALID,22.2771,VALID,76,VALID,0.977734,
2010-08-31, 02:55:04,VALID,999.5,VALID,0,VALID,91.8606,VALID,0,VALID,22.2576,VALID,85,VALID,1.07266,
2010-08-31, 02:56:04,VALID,999.487,VALID,0,VALID,91.9674,VALID,0,VALID,22.2576,VALID,71,VALID,1.03086,
2010-08-31, 02:57:04,VALID,999.48,VALID,0,VALID,91.9827,VALID,0,VALID,22.2381,VALID,31,VALID,0.726563,
2010-08-31, 02:58:04,VALID,999.482,VALID,0,VALID,91.853,VALID,0,VALID,22.199,VALID,32,VALID,0.670313,
2010-08-31, 02:59:04,VALID,999.508,VALID,0,VALID,91.9369,VALID,0,VALID,22.199,VALID,32,VALID,0.250781,
2010-08-31, 03:00:04,VALID,999.454,VALID,0,VALID,91.9064,VALID,0,VALID,22.1795,VALID,32,VALID,0.286328,
2010-08-31, 03:01:04,VALID,999.447,VALID,0,VALID,91.8835,VALID,0,VALID,22.1405,VALID,32,VALID,0.257813,
2010-08-31, 03:02:04,VALID,999.442,VALID,0,VALID,91.9827,VALID,0,VALID,22.1405,VALID,32,VALID,0,
2010-08-31, 03:03:04,VALID,999.441,VALID,0,VALID,92.0285,VALID,0,VALID,22.121,VALID,32,VALID,0,
2010-08-31, 03:04:04,VALID,999.421,VALID,0,VALID,92.0743,VALID,0,VALID,22.1015,VALID,32,VALID,0,
2010-08-31, 03:05:04,VALID,999.401,VALID,0,VALID,92.1277,VALID,0,VALID,22.1015,VALID,32,VALID,0,
2010-08-31, 03:06:04,VALID,999.404,VALID,0,VALID,92.1963,VALID,0,VALID,22.082,VALID,32,VALID,0,
2010-08-31, 03:07:04,VALID,999.416,VALID,0,VALID,92.3031,VALID,0,VALID,22.082,VALID,32,VALID,0,
2010-08-31, 03:08:04,VALID,999.378,VALID,0,VALID,92.4405,VALID,0,VALID,22.082,VALID,32,VALID,0,
2010-08-31, 03:09:04,VALID,999.375,VALID,0,VALID,92.5702,VALID,0,VALID,22.1015,VALID,32,VALID,0,
2010-08-31, 03:10:04,VALID,999.356,VALID,0,VALID,92.6236,VALID,0,VALID,22.121,VALID,32,VALID,0,
2010-08-31, 03:11:04,VALID,999.354,VALID,0,VALID,92.6617,VALID,0,VALID,22.1405,VALID,67,VALID,0.818359,
2010-08-31, 03:12:04,VALID,999.334,VALID,0,VALID,92.6236,VALID,0,VALID,22.121,VALID,67,VALID,0.733984,
2010-08-31, 03:13:04,VALID,999.309,VALID,0,VALID,92.5854,VALID,0.112286,VALID,22.1194,VALID,67,VALID,0.534375,
2010-08-31, 03:14:04,VALID,999.299,VALID,0,VALID,92.5549,VALID,0,VALID,22.121,VALID,67,VALID,0.361328,
2010-08-31, 03:15:04,VALID,999.297,VALID,0,VALID,92.5168,VALID,0,VALID,22.121,VALID,67,VALID,0,
2010-08-31, 03:16:04,VALID,999.279,VALID,0,VALID,92.5015,VALID,0,VALID,22.1015,VALID,67,VALID,0,
2010-08-31, 03:17:04,VALID,999.263,VALID,0,VALID,92.4863,VALID,0,VALID,22.1015,VALID,67,VALID,0,
2010-08-31, 03:18:04,VALID,999.276,VALID,0,VALID,92.4863,VALID,0,VALID,22.082,VALID,67,VALID,0,
2010-08-31, 03:19:04,VALID,999.271,VALID,0,VALID,92.5168,VALID,0,VALID,22.082,VALID,67,VALID,0,
2010-08-31, 03:20:04,VALID,999.244,VALID,0,VALID,92.532,VALID,0,VALID,22.082,VALID,64,VALID,0,
2010-08-31, 03:21:04,VALID,999.209,VALID,0,VALID,92.5397,VALID,0,VALID,22.082,VALID,28,VALID,1.16758,
2010-08-31, 03:22:04,VALID,999.229,VALID,0,VALID,92.532,VALID,0,VALID,22.0625,VALID,18,VALID,0.533203,
2010-08-31, 03:23:04,VALID,999.228,VALID,0,VALID,92.4557,VALID,0,VALID,22.043,VALID,18,VALID,0.249609,
2010-08-31, 03:24:04,VALID,999.208,VALID,0,VALID,92.3642,VALID,0,VALID,21.9845,VALID,16,VALID,0.953125,
2010-08-31, 03:25:04,VALID,999.204,VALID,0,VALID,92.4252,VALID,0,VALID,21.9845,VALID,355,VALID,1.12383,
2010-08-31, 03:26:04,VALID,999.233,VALID,0,VALID,92.5244,VALID,0,VALID,21.965,VALID,333,VALID,0.441016,
2010-08-31, 03:27:04,VALID,999.202,VALID,0,VALID,92.6541,VALID,0,VALID,21.965,VALID,348,VALID,0.744531,
2010-08-31, 03:28:04,VALID,999.218,VALID,0,VALID,92.7838,VALID,0,VALID,22.0235,VALID,2,VALID,1.10586,
2010-08-31, 03:29:04,VALID,999.306,VALID,0,VALID,92.8296,VALID,0,VALID,22.0235,VALID,355,VALID,0.474219,
2010-08-31, 03:30:04,VALID,999.288,VALID,0,VALID,92.8296,VALID,0,VALID,22.0023,VALID,355,VALID,0.613672,
2010-08-31, 03:31:04,VALID,999.276,VALID,0,VALID,92.8525,VALID,0.112286,VALID,22.0235,VALID,353,VALID,0.433203,
2010-08-31, 03:32:04,VALID,999.334,VALID,0,VALID,92.822,VALID,0,VALID,22.0023,VALID,353,VALID,0.270312,
2010-08-31, 03:33:04,VALID,999.303,VALID,0,VALID,92.8143,VALID,0,VALID,22.043,VALID,355,VALID,0.425,
2010-08-31, 03:34:04,VALID,999.31,VALID,0,VALID,92.7914,VALID,0,VALID,22.0218,VALID,2,VALID,0.577734,
2010-08-31, 03:35:04,VALID,999.299,VALID,0,VALID,92.7762,VALID,0,VALID,22.043,VALID,34,VALID,0.582422,
2010-08-31, 03:36:04,VALID,999.274,VALID,0,VALID,92.7304,VALID,0,VALID,22.0235,VALID,37,VALID,0.624609,
2010-08-31, 03:37:04,VALID,999.297,VALID,0,VALID,92.6541,VALID,0,VALID,22.0235,VALID,37,VALID,0.648828,
2010-08-31, 03:38:04,VALID,999.315,VALID,0,VALID,92.5778,VALID,0,VALID,21.9845,VALID,37,VALID,0.208984,
2010-08-31, 03:39:04,VALID,999.336,VALID,0,VALID,92.4634,VALID,0,VALID,21.9438,VALID,37,VALID,0,
2010-08-31, 03:40:04,VALID,999.347,VALID,0,VALID,92.4023,VALID,0,VALID,21.9455,VALID,37,VALID,0,
2010-08-31, 03:41:04,VALID,999.322,VALID,0,VALID,92.4557,VALID,0,VALID,21.965,VALID,37,VALID,0,
2010-08-31, 03:42:04,VALID,999.347,VALID,0,VALID,92.4939,VALID,0,VALID,21.9455,VALID,37,VALID,0,
2010-08-31, 03:43:04,VALID,999.354,VALID,0,VALID,92.4863,VALID,0,VALID,21.9455,VALID,60,VALID,0,
2010-08-31, 03:44:04,VALID,999.335,VALID,0,VALID,92.6083,VALID,0,VALID,21.9845,VALID,77,VALID,0.790625,
2010-08-31, 03:45:04,VALID,999.303,VALID,0,VALID,92.4863,VALID,0,VALID,21.9845,VALID,71,VALID,1.36055,
2010-08-31, 03:46:04,VALID,999.315,VALID,0,VALID,92.3337,VALID,0,VALID,21.9455,VALID,67,VALID,1.28789,
2010-08-31, 03:47:04,VALID,999.31,VALID,0,VALID,92.2421,VALID,0,VALID,21.965,VALID,78,VALID,1.23633,
2010-08-31, 03:48:04,VALID,999.328,VALID,0,VALID,92.2574,VALID,0,VALID,21.9845,VALID,80,VALID,1.11797,
2010-08-31, 03:49:04,VALID,999.368,VALID,0,VALID,92.2192,VALID,0,VALID,21.9845,VALID,84,VALID,1.03945,